Satellite: INMARSAT 3-F1
Catalog number: 23839
Epoch time:      103059.73801147
Element set:     879 
Inclination:        0.0719 deg
RA of node:       325.4688 deg
Eccentricity:    0.0013901
Arg of perigee:   236.0688 deg
Mean anomaly:     286.2920 deg
Mean motion:    1.00269917 rev/day
Decay rate:   -3.9999E-008 rev/day^2
Epoch rev:            2531
Checksum:              333

Satellite: ASTRA 1F
Catalog number: 23842
Epoch time:      103057.00000000
Element set:     561 
Inclination:        0.0122 deg
RA of node:       319.8851 deg
Eccentricity:    0.0002995
Arg of perigee:    65.1991 deg
Mean anomaly:     149.5643 deg
Mean motion:    1.00273184 rev/day
Decay rate:    1.0400E-006 rev/day^2
Epoch rev:            2519
Checksum:              238

Satellite: JAS 2
Catalog number: 24278
Epoch time:      103063.88955092
Element set:     572 
Inclination:       98.5389 deg
RA of node:       213.1663 deg
Eccentricity:    0.0350509
Arg of perigee:   179.2452 deg
Mean anomaly:     180.9298 deg
Mean motion:   13.52873733 rev/day
Decay rate:    3.1999E-007 rev/day^2
Epoch rev:           32324
Checksum:              351

Satellite: UNAMSAT
Catalog number: 24305
Epoch time:      103064.56816106
Element set:     667 
Inclination:       82.9271 deg
RA of node:       251.6811 deg
Eccentricity:    0.0029534
Arg of perigee:   158.2168 deg
Mean anomaly:     202.0233 deg
Mean motion:   13.73454135 rev/day
Decay rate:    2.0499E-006 rev/day^2
Epoch rev:           32554
Checksum:              292

Satellite: INMARSAT 3-F2
Catalog number: 24307
Epoch time:      103063.96016427
Element set:     89 
Inclination:        0.0526 deg
RA of node:       346.7323 deg
Eccentricity:    0.0005002
Arg of perigee:     8.2459 deg
Mean anomaly:     137.4701 deg
Mean motion:    1.00273004 rev/day
Decay rate:   -1.3100E-006 rev/day^2
Epoch rev:            2376
Checksum:              348

Satellite: HOT BIRD 2
Catalog number: 24665
Epoch time:      103054.87288413
Element set:     344 
Inclination:        0.0674 deg
RA of node:       252.7220 deg
Eccentricity:    0.0007661
Arg of perigee:    70.4027 deg
Mean anomaly:     157.3662 deg
Mean motion:    1.00270188 rev/day
Decay rate:    7.5999E-007 rev/day^2
Epoch rev:            2331
Checksum:              394

Satellite: INMARSAT 3-F3
Catalog number: 24674
Epoch time:      103063.55281889
Element set:     1 
Inclination:        0.0505 deg
RA of node:       311.8868 deg
Eccentricity:    0.0003314
Arg of perigee:     0.1828 deg
Mean anomaly:     226.9105 deg
Mean motion:    1.00274452 rev/day
Decay rate:    3.0999E-007 rev/day^2
Epoch rev:            2272
Checksum:              273

Satellite: GOES 10
Catalog number: 24786
Epoch time:      103063.29350267
Element set:     571 
Inclination:        0.1717 deg
RA of node:       104.8167 deg
Eccentricity:    0.0002325
Arg of perigee:   273.8773 deg
Mean anomaly:     113.1868 deg
Mean motion:    1.00264284 rev/day
Decay rate:    7.9000E-007 rev/day^2
Epoch rev:            2147
Checksum:              280

Satellite: INMARSAT 3-F4
Catalog number: 24819
Epoch time:      103063.97924061
Element set:     892 
Inclination:        0.0649 deg
RA of node:       308.6587 deg
Eccentricity:    0.0004546
Arg of perigee:    51.7150 deg
Mean anomaly:     100.4675 deg
Mean motion:    1.00271187 rev/day
Decay rate:   -2.9400E-006 rev/day^2
Epoch rev:            2115
Checksum:              285

Satellite: FENGYUN 2A
Catalog number: 24834
Epoch time:      103060.84354332
Element set:     972 
Inclination:        2.6000 deg
RA of node:        88.3287 deg
Eccentricity:    0.0001093
Arg of perigee:   244.3172 deg
Mean anomaly:     216.2693 deg
Mean motion:    1.00279478 rev/day
Decay rate:   -2.1299E-006 rev/day^2
Epoch rev:            2095
Checksum:              284

Satellite: HOT BIRD 3
Catalog number: 24931
Epoch time:      103054.87288413
Element set:     428 
Inclination:        0.1004 deg
RA of node:       298.5607 deg
Eccentricity:    0.0010424
Arg of perigee:    36.2408 deg
Mean anomaly:     145.6862 deg
Mean motion:    1.00270404 rev/day
Decay rate:    7.5000E-007 rev/day^2
Epoch rev:            2013
Checksum:              248

Satellite: METEOSAT 7
Catalog number: 24932
Epoch time:      103058.89532175
Element set:     255 
Inclination:        0.2424 deg
RA of node:        73.4343 deg
Eccentricity:    0.0001886
Arg of perigee:   223.2414 deg
Mean anomaly:     183.5527 deg
Mean motion:    1.00269814 rev/day
Decay rate:   -1.8999E-007 rev/day^2
Epoch rev:            2011
Checksum:              291

Satellite: ASTRA 1G
Catalog number: 25071
Epoch time:      103057.00000000
Element set:     393 
Inclination:        0.0122 deg
RA of node:       319.8851 deg
Eccentricity:    0.0002995
Arg of perigee:    65.1991 deg
Mean anomaly:     149.5199 deg
Mean motion:    1.00273184 rev/day
Decay rate:    1.0400E-006 rev/day^2
Epoch rev:            1921
Checksum:              239

Satellite: INMARSAT 3-F5
Catalog number: 25153
Epoch time:      103061.83073845
Element set:     852 
Inclination:        0.4645 deg
RA of node:       353.6125 deg
Eccentricity:    0.0002981
Arg of perigee:   340.5187 deg
Mean anomaly:     150.1062 deg
Mean motion:    1.00269240 rev/day
Decay rate:    1.2499E-006 rev/day^2
Epoch rev:            1862
Checksum:              276

Satellite: HOT BIRD 4
Catalog number: 25237
Epoch time:      103055.98151369
Element set:     330 
Inclination:        0.0547 deg
RA of node:       293.1775 deg
Eccentricity:    0.0007524
Arg of perigee:   338.0934 deg
Mean anomaly:     249.5459 deg
Mean motion:    1.00273950 rev/day
Decay rate:    7.4000E-007 rev/day^2
Epoch rev:            1860
Checksum:              290

Satellite: NOAA 15
Catalog number: 25338
Epoch time:      103063.99999841
Element set:     28 
Inclination:       98.5489 deg
RA of node:        85.7583 deg
Eccentricity:    0.0009661
Arg of perigee:   277.4185 deg
Mean anomaly:      82.5896 deg
Mean motion:   14.24250364 rev/day
Decay rate:    1.5199E-006 rev/day^2
Epoch rev:           24985
Checksum:              486

Satellite: RESURS O1-N4
Catalog number: 25394
Epoch time:      103063.97109080
Element set:     464 
Inclination:       98.6297 deg
RA of node:       141.6317 deg
Eccentricity:    0.0002411
Arg of perigee:    73.2725 deg
Mean anomaly:     286.8719 deg
Mean motion:   14.23881817 rev/day
Decay rate:    8.1000E-007 rev/day^2
Epoch rev:           24158
Checksum:              316

Satellite: TMSAT
Catalog number: 25396
Epoch time:      103063.94496020
Element set:     978 
Inclination:       98.6235 deg
RA of node:       140.7646 deg
Eccentricity:    0.0003678
Arg of perigee:    93.4135 deg
Mean anomaly:     266.7465 deg
Mean motion:   14.23515234 rev/day
Decay rate:   -4.3000E-007 rev/day^2
Epoch rev:           24157
Checksum:              314

Satellite: TECHSAT 1B
Catalog number: 25397
Epoch time:      103063.97236969
Element set:     132 
Inclination:       98.6200 deg
RA of node:       139.6580 deg
Eccentricity:    0.0002165
Arg of perigee:    97.4776 deg
Mean anomaly:     262.6650 deg
Mean motion:   14.22962369 rev/day
Decay rate:    3.4999E-007 rev/day^2
Epoch rev:           24154
Checksum:              344

Satellite: ASTRA 2A
Catalog number: 25462
Epoch time:      103058.24227095
Element set:     535 
Inclination:        0.0563 deg
RA of node:       284.0808 deg
Eccentricity:    0.0004996
Arg of perigee:    69.9559 deg
Mean anomaly:     278.0076 deg
Mean motion:    1.00271461 rev/day
Decay rate:    9.9999E-009 rev/day^2
Epoch rev:            1652
Checksum:              325

Satellite: EUTELSAT W2
Catalog number: 25491
Epoch time:      103063.86972223
Element set:     584 
Inclination:        0.0150 deg
RA of node:       242.2540 deg
Eccentricity:    0.0003689
Arg of perigee:   104.5493 deg
Mean anomaly:     144.4454 deg
Mean motion:    1.00272151 rev/day
Decay rate:    9.5000E-007 rev/day^2
Epoch rev:            1619
Checksum:              260

Satellite: HOT BIRD 5
Catalog number: 25495
Epoch time:      103061.90551103
Element set:     502 
Inclination:        0.0305 deg
RA of node:       116.4803 deg
Eccentricity:    0.0000328
Arg of perigee:   142.7027 deg
Mean anomaly:     254.0481 deg
Mean motion:    1.00130489 rev/day
Decay rate:    1.2100E-006 rev/day^2
Epoch rev:            1614
Checksum:              220

Satellite: SEDSAT 1
Catalog number: 25509
Epoch time:      103064.40904754
Element set:     794 
Inclination:       31.4300 deg
RA of node:        69.3537 deg
Eccentricity:    0.0356938
Arg of perigee:    72.4762 deg
Mean anomaly:     291.4595 deg
Mean motion:   14.27450749 rev/day
Decay rate:    5.5099E-006 rev/day^2
Epoch rev:           22743
Checksum:              331

Satellite: PAN SAT
Catalog number: 25520
Epoch time:      103063.60085001
Element set:     645 
Inclination:       28.4610 deg
RA of node:       130.3881 deg
Eccentricity:    0.0006043
Arg of perigee:   143.3198 deg
Mean anomaly:     216.7799 deg
Mean motion:   15.13945775 rev/day
Decay rate:    2.6159E-005 rev/day^2
Epoch rev:           23971
Checksum:              295

Satellite: ISS (ZARYA)
Catalog number: 25544
Epoch time:      103064.52491975
Element set:     751 
Inclination:       51.6364 deg
RA of node:       180.8984 deg
Eccentricity:    0.0011794
Arg of perigee:   279.8984 deg
Mean anomaly:     183.5047 deg
Mean motion:   15.59171192 rev/day
Decay rate:    2.1380E-004 rev/day^2
Epoch rev:           24483
Checksum:              336

